Regional Weather Roundup
Issued by NWS Albany, NY

Home | Current Version | Previous Version | Text Only | Print | Product List | Glossary On
Versions: 1 2 3 4 5 6 7 8 9 10 11 12 13 14 15 16 17 18 19 20 21 22 23 24 25 26 27 28 29 30 31 32 33 34 35 36 37 38 39 40 41 42 43 44 45 46 47 48 49 50
000
ASUS41 KALY 040010
RWRALY

NEW YORK STATE HOURLY WEATHER ROUNDUP
NATIONAL WEATHER SERVICE ALBANY NY
800 PM EDT MON AUG 03 2015

NOTE: "FAIR" INDICATES FEW OR NO CLOUDS BELOW 12,000 FEET WITH NO
SIGNIFICANT WEATHER AND/OR NO OBSTRUCTIONS TO VISIBILITY.

NYZ032-033-038>043-046>054-057>066-NYZ062>081-040100-
EAST


CITY           SKY/WX    TMP DP  RH WIND       PRES   REMARKS
ALBANY         MOCLDY    72  68  87 SE5       29.74S
GLENS FALLS    PTCLDY    72  62  71 S8        29.73R
POUGHKEEPSIE   MOCLDY    83  63  50 W3        29.75R
NEWBURGH       PTCLDY    81  64  57 W12G17    29.78R
MONTGOMERY     MOCLDY    79  68  69 CALM      29.77R
WHITE PLAINS   PTCLDY    79  68  69 S7        29.78S
ISLIP          PTCLDY    79  72  79 SW13G22   29.79S
NEW YORK CITY  MOCLDY    88  58  36 S14G21    29.77R
CENTRAL PARK   PTCLDY    86  59  39 MISG      29.80S
$$

NYZ005>009-017-018-044>046-055-056-040100-
CENTRAL


CITY           SKY/WX    TMP DP  RH WIND       PRES   REMARKS
FULTON         PTCLDY    70  61  73 NW3       29.76R
SYRACUSE       MOCLDY    73  65  75 S5        29.75R
ROME           PTCLDY    71  62  73 S6        29.77S
ELMIRA         CLEAR     77  60  55 W6        29.77R
BINGHAMTON     PTCLDY    72  62  71 SW6       29.80R
MONTICELLO     MOCLDY    73  66  78 S5        29.83S
$$

NYZ026>034-041>043-040100-
NORTH


CITY           SKY/WX    TMP DP  RH WIND       PRES   REMARKS
WATERTOWN      PTCLDY    70  61  73 SW6       29.73S
FORT DRUM      NOT AVBL
MASSENA        CLEAR     69  59  70 SW9       29.70R
SARANAC LAKE   CLEAR     66  61  84 SW6       29.77R
PLATTSBURGH    PTCLDY    75  60  59 CALM      29.71R
$$

NYZ001>004-010>016-019>021-040100-
WEST


CITY           SKY/WX    TMP DP  RH WIND       PRES   REMARKS
NIAGARA FALLS  MOCLDY    72  60  66 SW13      29.76R
BUFFALO        PTCLDY    72  62  71 SW12      29.77R
DUNKIRK        PTCLDY    72  64  76 SW8       29.79R
JAMESTOWN      PTCLDY    70  57  64 W5        29.84S
WELLSVILLE     CLEAR     72  56  57 W5        29.86R
ROCHESTER      PTCLDY    74  58  57 NW6       29.76R
PENN YAN       PTCLDY    74  62  66 SW5       29.78S
$$

             KEY
       WCI = WIND CHILL INDEX
       VSB = VISIBILITY
       HX  = HEAT INDEX
$$



USA.gov is the U.S. government's official web portal to all federal, state and local government web resources and services.